Tracking 20623 objects as of 3-Apr-2020
HD Live streaming from Space Station
objects crossing your sky now

ARIANE 2 DEB

Track ARIANE 2 DEB now!


NORAD ID: 33579
Int'l Code: 1989-006BX
Perigee: 858.1 km
Apogee: 35,654.9 km
Inclination: 11.0 °
Period: 641.0 minutes
Semi major axis: 24627 km
RCS: 0.196 m2 (medium)
Launch date: January 27, 1989
Source: France (FR)
Launch site: FRENCH GUIANA (FRGUI)

Note: This is SATELLITE DEBRIS
aabbcc
Your satellite tracking list
Your tracking list is empty




NASA's NSSDC Master Catalog

Two Line Element Set (TLE):
1 33579U 89006BX  19095.29519848 -.00000448 +00000-0 -22146-1 0  9994
2 33579 010.9780 285.3320 7064633 028.5974 122.9332 02.24632486135975
Source of the keplerian elements: AFSPC